カタログに戻る

STARLINK-35689

運用中通信VLEO
NORAD 66494·PAYLOAD·🇺🇸 United States

打ち上げ Nov 15, 2025 から Cape Canaveral Space Force Station

Loading…

次のパス (今後24時間)

TLE

最新Source: CelesTrak SupGP

元期: Sep 15, 2026, 03:32 UTC

1 66494C 25263K   26258.14770833  .00036582  00000+0  13247-2 0  2583
2 66494  43.0013   1.1227 0001675 258.4297 318.0179 15.27567759    15

AllMySatでSTARLINK-35689をリアルタイム追跡

Download on the App Store